START_TIME,STEP,MOV.,M15,t_acc.,M20,t_acc.
1979-07-15 06:00:44.140 ,0,1,0.,24.0,0.,24.0
1979-07-15 06:01:08.140 ,4,1,0.,24.0,0.,24.0
1979-07-15 06:01:32.140 ,7,1,0.,24.0,0.,24.0
1979-07-15 06:01:56.140 ,3,1,0.,24.0,0.,24.0
1979-07-15 06:02:20.140 ,0,1,0.,24.0,0.,24.0
1979-07-15 06:02:44.140 ,4,1,0.,24.0,0.,24.0
1979-07-15 06:03:08.140 ,7,1,0.,24.0,0.,24.0
1979-07-15 06:03:32.140 ,3,1,0.,24.0,0.,24.0
1979-07-15 06:03:56.140 ,0,1,0.,24.0,0.,24.0
1979-07-15 06:04:20.140 ,4,1,0.,24.0,0.,24.0
1979-07-15 06:04:44.140 ,7,1,0.,24.0,0.,24.0
1979-07-15 06:05:08.140 ,3,1,0.,24.0,0.,24.0
1979-07-15 06:05:32.140 ,0,1,0.,24.0,0.,24.0
1979-07-15 06:05:56.140 ,0,0,0.,24.0,0.,24.0
1979-07-15 06:06:20.140 ,0,0,0.,24.0,0.,24.0
1979-07-15 06:06:44.140 ,5,1,0.,24.0,0.,24.0
1979-07-15 06:07:08.140 ,5,0,0.,24.0,0.,24.0
1979-07-15 06:07:32.140 ,4,1,0.,24.0,0.,24.0
1979-07-15 06:07:56.140 ,4,0,0.,24.0,0.,24.0
1979-07-15 06:08:20.140 ,3,1,0.,24.0,0.,24.0
1979-07-15 06:08:44.140 ,3,0,0.,24.0,0.,24.0
1979-07-15 06:09:08.140 ,2,1,0.,24.0,0.,24.0
1979-07-15 06:09:32.140 ,2,0,0.,24.0,0.,24.0
1979-07-15 06:09:56.140 ,1,1,0.,24.0,0.,24.0
1979-07-15 06:10:20.140 ,1,0,0.,24.0,0.,24.0
1979-07-15 06:10:44.140 ,0,1,0.,24.0,0.,24.0
1979-07-15 06:11:08.140 ,0,0,0.,24.0,0.,24.0
1979-07-15 06:11:32.140 ,0,1,0.,24.0,0.,24.0
1979-07-15 06:11:56.140 ,0,0,0.,24.0,0.,24.0
1979-07-15 06:12:20.140 ,1,1,0.,24.0,0.,24.0
1979-07-15 06:12:44.140 ,1,0,0.,24.0,0.,24.0
1979-07-15 06:13:08.140 ,2,1,0.,24.0,0.,24.0
1979-07-15 06:13:32.140 ,2,0,0.,24.0,0.,24.0
1979-07-15 06:13:56.140 ,3,1,0.,24.0,0.,24.0
1979-07-15 06:14:20.140 ,3,0,0.,24.0,0.,24.0
1979-07-15 06:14:44.140 ,4,1,0.,24.0,0.,24.0
1979-07-15 06:15:08.140 ,4,0,0.,24.0,0.,24.0
1979-07-15 06:15:32.140 ,5,1,0.,24.0,0.,24.0
1979-07-15 06:15:56.140 ,5,0,0.,24.0,0.,24.0
1979-07-15 06:16:20.140 ,6,1,0.,24.0,0.,24.0
1979-07-15 06:16:44.140 ,6,0,0.,24.0,0.,24.0
1979-07-15 06:17:08.140 ,7,1,0.,24.0,0.,24.0
1979-07-15 06:17:32.140 ,7,0,0.,24.0,0.,24.0
1979-07-15 06:17:56.140 ,7,1,0.,24.0,0.,24.0
1979-07-15 06:18:20.140 ,7,0,0.,24.0,0.,24.0
1979-07-15 06:18:44.140 ,6,1,0.,24.0,0.,24.0
1979-07-15 06:19:08.140 ,6,0,0.,24.0,0.,24.0
1979-07-15 06:19:32.140 ,5,1,0.,24.0,0.,24.0
1979-07-15 06:19:56.140 ,5,0,0.,24.0,0.,24.0
1979-07-15 06:20:20.140 ,4,1,0.,24.0,0.,24.0
1979-07-15 06:20:44.140 ,4,0,0.,24.0,0.,24.0
1979-07-15 06:21:08.140 ,3,1,0.,24.0,0.,24.0
1979-07-15 06:21:32.140 ,3,0,0.,24.0,0.,24.0
1979-07-15 06:21:56.140 ,2,1,0.,24.0,0.,24.0
1979-07-15 06:22:20.140 ,2,0,0.,24.0,0.,24.0
1979-07-15 06:22:44.140 ,1,1,0.,24.0,0.,24.0
1979-07-15 06:23:08.140 ,1,0,0.,24.0,0.,24.0
1979-07-15 06:23:32.140 ,0,1,0.,24.0,0.,24.0
1979-07-15 06:23:56.140 ,0,0,0.,24.0,0.,24.0
1979-07-15 06:24:20.140 ,0,1,0.,24.0,0.,24.0
1979-07-15 06:24:44.140 ,0,0,0.,24.0,0.,24.0
1979-07-15 06:25:08.140 ,1,1,0.,24.0,0.,24.0
1979-07-15 06:25:32.140 ,1,0,0.,24.0,0.,24.0
1979-07-15 06:25:56.140 ,2,1,0.,24.0,0.,24.0
1979-07-15 06:26:20.140 ,2,0,0.,24.0,0.,24.0
1979-07-15 06:26:44.140 ,3,1,0.,24.0,0.,24.0
1979-07-15 06:27:08.140 ,3,0,0.,24.0,0.,24.0
1979-07-15 06:27:32.140 ,4,1,0.,24.0,0.,24.0
1979-07-15 06:27:56.140 ,4,0,0.,24.0,0.,24.0
1979-07-15 06:28:20.140 ,5,1,0.,24.0,0.,24.0
1979-07-15 06:28:44.140 ,5,0,0.,24.0,0.,24.0
1979-07-15 06:29:08.140 ,6,1,0.,24.0,0.,24.0
1979-07-15 06:29:32.140 ,6,0,0.,24.0,0.,24.0
1979-07-15 06:29:56.140 ,7,1,0.,24.0,0.,24.0
1979-07-15 06:30:20.140 ,7,0,0.,24.0,0.,24.0
1979-07-15 06:30:44.140 ,7,1,0.,24.0,0.,24.0
1979-07-15 06:31:08.140 ,7,0,0.,24.0,0.,24.0
1979-07-15 06:31:32.140 ,6,1,0.,24.0,0.,24.0
1979-07-15 06:31:56.140 ,6,0,0.,24.0,0.,24.0
1979-07-15 06:32:20.140 ,5,1,0.,24.0,0.,24.0
1979-07-15 06:32:44.140 ,5,0,0.,24.0,0.,24.0
1979-07-15 06:33:08.140 ,4,1,0.,24.0,0.,24.0
1979-07-15 06:33:32.140 ,4,0,0.,24.0,0.,24.0
1979-07-15 06:33:56.140 ,3,1,0.,24.0,0.,24.0
1979-07-15 06:34:20.140 ,3,0,0.,24.0,0.,24.0
1979-07-15 06:34:44.140 ,2,1,0.,24.0,0.,24.0
1979-07-15 06:35:08.140 ,2,0,0.,24.0,0.,24.0
1979-07-15 06:35:32.140 ,1,1,0.,24.0,0.,24.0
1979-07-15 06:35:56.140 ,1,0,0.,24.0,0.,24.0
1979-07-15 06:36:20.140 ,0,1,0.,24.0,0.,24.0
1979-07-15 06:36:44.140 ,0,0,0.,24.0,0.,24.0
1979-07-15 06:37:08.140 ,0,1,0.,24.0,0.,24.0
1979-07-15 06:37:32.140 ,0,0,0.,24.0,0.,24.0
1979-07-15 06:37:56.140 ,1,1,0.,24.0,0.,24.0
1979-07-15 06:38:20.140 ,1,0,0.,24.0,0.,24.0
1979-07-15 06:38:44.130 ,2,1,0.,24.0,0.,24.0
1979-07-15 06:39:08.130 ,2,0,0.,24.0,0.,24.0
1979-07-15 06:39:32.130 ,3,1,0.,24.0,0.,24.0
1979-07-15 06:39:56.130 ,3,0,0.,24.0,0.,24.0
1979-07-15 06:40:20.130 ,4,1,0.,24.0,0.,24.0
1979-07-15 06:40:44.130 ,4,0,0.,24.0,0.,24.0
1979-07-15 06:41:08.130 ,5,1,0.,24.0,0.,24.0
1979-07-15 06:41:32.130 ,5,0,0.,24.0,0.,24.0
1979-07-15 06:41:56.130 ,6,1,0.,24.0,0.,24.0
1979-07-15 06:42:20.130 ,6,0,0.,24.0,0.,24.0
1979-07-15 06:42:44.130 ,7,0,0.,24.0,0.,24.0
1979-07-15 06:43:08.130 ,7,0,0.,24.0,0.,24.0
1979-07-15 06:43:32.130 ,3,1,0.,24.0,0.,24.0
1979-07-15 06:43:56.130 ,0,1,0.,24.0,0.,24.0
1979-07-15 06:44:20.130 ,4,1,0.,24.0,0.,24.0
1979-07-15 06:44:44.130 ,7,1,0.,24.0,0.,24.0
1979-07-15 06:45:08.130 ,3,1,0.,24.0,0.,24.0
1979-07-15 06:45:32.130 ,0,1,0.,24.0,0.,24.0
1979-07-15 06:45:56.130 ,4,1,0.,24.0,0.,24.0
1979-07-15 06:46:20.130 ,7,1,0.,24.0,0.,24.0
1979-07-15 06:46:44.130 ,3,1,0.,24.0,0.,24.0
1979-07-15 06:47:08.130 ,0,1,0.,24.0,0.,24.0
1979-07-15 06:47:32.130 ,4,1,0.,24.0,0.,24.0
1979-07-15 06:47:56.130 ,0,0,,0,,0
1979-07-15 06:48:06.930 ,7,1,0.,24.0,0.,24.0
1979-07-15 06:48:20.130 ,3,1,0.,24.0,0.,24.0
1979-07-15 06:48:44.130 ,0,1,0.,24.0,0.,24.0
1979-07-15 06:49:08.130 ,4,1,0.,24.0,0.,24.0
1979-07-15 06:49:32.130 ,7,1,0.,24.0,0.,24.0
1979-07-15 06:49:56.130 ,3,1,0.,24.0,0.,24.0
1979-07-15 06:50:20.130 ,0,1,0.,24.0,0.,24.0
1979-07-15 06:50:44.130 ,4,1,0.,24.0,0.,24.0
1979-07-15 06:51:08.130 ,7,1,0.,24.0,0.,24.0
1979-07-15 06:51:32.130 ,3,1,0.,24.0,0.,24.0
1979-07-15 06:51:56.130 ,0,1,0.,24.0,0.,24.0
1979-07-15 06:52:20.130 ,4,1,0.,24.0,0.,24.0
1979-07-15 06:52:44.130 ,7,1,0.,24.0,0.,24.0
1979-07-15 06:53:08.130 ,3,1,0.,24.0,0.,24.0
1979-07-15 06:53:32.130 ,0,1,0.,24.0,0.,24.0
1979-07-15 06:53:56.130 ,0,0,0.,24.0,0.,24.0
1979-07-15 06:54:20.130 ,0,0,0.,24.0,0.,24.0
1979-07-15 06:54:44.130 ,5,1,0.,24.0,0.,24.0
1979-07-15 06:55:08.130 ,5,0,0.,24.0,0.,24.0
1979-07-15 06:55:32.130 ,4,1,0.,24.0,0.,24.0
1979-07-15 06:55:56.130 ,4,0,0.,24.0,0.,24.0
1979-07-15 06:56:20.130 ,3,1,0.,24.0,0.,24.0
1979-07-15 06:56:44.130 ,3,0,0.,24.0,0.,24.0
1979-07-15 06:57:08.130 ,2,1,0.,24.0,0.,24.0
1979-07-15 06:57:32.130 ,2,0,0.,24.0,0.,24.0
1979-07-15 06:57:56.130 ,1,1,0.,24.0,0.,24.0
1979-07-15 06:58:20.130 ,1,0,0.,24.0,0.,24.0
1979-07-15 06:58:44.130 ,0,1,0.,24.0,0.,24.0
1979-07-15 06:59:08.130 ,0,0,0.,24.0,0.,24.0
1979-07-15 06:59:32.130 ,0,1,0.,24.0,0.,24.0
1979-07-15 06:59:56.130 ,0,0,0.,24.0,0.,24.0
1979-07-15 07:00:20.130 ,1,1,0.,24.0,0.,24.0
1979-07-15 07:00:44.130 ,1,0,0.,24.0,0.,24.0
1979-07-15 07:01:08.130 ,2,1,0.,24.0,0.,24.0
1979-07-15 07:01:32.130 ,2,0,0.,24.0,0.,24.0
1979-07-15 07:01:56.130 ,3,1,0.,24.0,0.,24.0
1979-07-15 07:02:20.130 ,3,0,0.,24.0,0.,24.0
1979-07-15 07:02:44.130 ,4,1,0.,24.0,0.,24.0
1979-07-15 07:03:08.130 ,4,0,0.,24.0,0.,24.0
1979-07-15 07:03:32.130 ,5,1,0.,24.0,0.,24.0
1979-07-15 07:03:56.130 ,5,0,0.,24.0,0.,24.0
1979-07-15 07:04:20.130 ,6,1,0.,24.0,0.,24.0
1979-07-15 07:04:44.130 ,6,0,0.,24.0,0.,24.0
1979-07-15 07:05:08.130 ,7,1,0.,24.0,0.,24.0
1979-07-15 07:05:32.130 ,7,0,0.,24.0,0.,24.0
1979-07-15 07:05:56.130 ,7,1,0.,24.0,0.,24.0
1979-07-15 07:06:20.130 ,7,0,0.,24.0,0.,24.0
1979-07-15 07:06:44.130 ,6,1,0.,24.0,0.,24.0
1979-07-15 07:07:08.130 ,6,0,0.,24.0,0.,24.0
1979-07-15 07:07:32.130 ,5,1,0.,24.0,0.,24.0
1979-07-15 07:07:56.130 ,5,0,0.,24.0,0.,24.0
1979-07-15 07:08:20.130 ,4,1,0.,24.0,0.,24.0
1979-07-15 07:08:44.130 ,4,0,0.,24.0,0.,24.0
1979-07-15 07:09:08.130 ,3,1,0.,24.0,0.,24.0
1979-07-15 07:09:32.130 ,3,0,0.,24.0,0.,24.0
1979-07-15 07:09:56.130 ,2,1,0.,24.0,0.,24.0
1979-07-15 07:10:20.130 ,2,0,0.,24.0,0.,24.0
1979-07-15 07:10:44.130 ,1,1,0.,24.0,0.,24.0
1979-07-15 07:11:08.130 ,1,0,0.,24.0,0.,24.0
1979-07-15 07:11:32.130 ,0,1,0.,24.0,0.,24.0
1979-07-15 07:11:56.130 ,0,0,0.,24.0,0.,24.0
1979-07-15 07:12:20.130 ,0,1,0.,24.0,0.,24.0
1979-07-15 07:12:44.130 ,0,0,0.,24.0,0.,24.0
1979-07-15 07:13:08.130 ,1,1,0.,24.0,0.,24.0
1979-07-15 07:13:32.130 ,1,0,0.,24.0,0.,24.0
1979-07-15 07:13:56.130 ,2,1,0.,24.0,0.,24.0
1979-07-15 07:14:20.130 ,2,0,0.,24.0,0.,24.0
1979-07-15 07:14:44.130 ,3,1,0.,24.0,0.,24.0
1979-07-15 07:15:08.130 ,3,0,0.,24.0,0.,24.0
1979-07-15 07:15:32.130 ,4,1,0.,24.0,0.,24.0
1979-07-15 07:15:56.130 ,4,0,0.,24.0,0.,24.0
1979-07-15 07:16:20.130 ,5,1,0.,24.0,0.,24.0
1979-07-15 07:16:44.130 ,5,0,0.,24.0,0.,24.0
1979-07-15 07:17:08.130 ,6,1,0.,24.0,0.,24.0
1979-07-15 07:17:32.130 ,6,0,0.,24.0,0.,24.0
1979-07-15 07:17:56.130 ,7,1,0.,24.0,0.,24.0
1979-07-15 07:18:20.130 ,7,0,0.,24.0,0.,24.0
1979-07-15 07:18:44.130 ,7,1,0.,24.0,0.,24.0
1979-07-15 07:19:08.130 ,7,0,0.,24.0,0.,24.0
1979-07-15 07:19:32.130 ,6,1,0.,24.0,0.,24.0
1979-07-15 07:19:56.130 ,6,0,0.,24.0,0.,24.0
1979-07-15 07:20:20.130 ,5,1,0.,24.0,0.,24.0
1979-07-15 07:20:44.130 ,5,0,0.,24.0,0.,24.0
1979-07-15 07:21:08.130 ,4,1,0.,24.0,0.,24.0
1979-07-15 07:21:32.130 ,4,0,0.,24.0,0.,24.0
1979-07-15 07:21:56.130 ,3,1,0.,24.0,0.,24.0
1979-07-15 07:22:20.130 ,3,0,0.,24.0,0.,24.0
1979-07-15 07:22:44.130 ,2,1,0.,24.0,0.,24.0
1979-07-15 07:23:08.130 ,2,0,0.,24.0,0.,24.0
1979-07-15 07:23:32.130 ,1,1,0.,24.0,0.,24.0
1979-07-15 07:23:56.130 ,1,0,0.,24.0,0.,24.0
1979-07-15 07:24:20.130 ,0,1,0.,24.0,0.,24.0
1979-07-15 07:24:44.130 ,0,0,0.,24.0,0.,24.0
1979-07-15 07:25:08.130 ,0,1,0.,24.0,0.,24.0
1979-07-15 07:25:32.130 ,0,0,0.,24.0,0.,24.0
1979-07-15 07:25:56.130 ,1,1,0.,24.0,0.,24.0
1979-07-15 07:26:20.130 ,1,0,0.,24.0,0.,24.0
1979-07-15 07:26:44.130 ,2,1,0.,24.0,0.,24.0
1979-07-15 07:27:08.130 ,2,0,0.,24.0,0.,24.0
1979-07-15 07:27:32.130 ,3,1,0.,24.0,0.,24.0
1979-07-15 07:27:56.130 ,3,0,0.,24.0,0.,24.0
1979-07-15 07:28:20.130 ,4,1,0.,24.0,0.,24.0
1979-07-15 07:28:44.130 ,4,0,0.,24.0,0.,24.0
1979-07-15 07:29:08.130 ,5,1,1.,24.0,0.,24.0
1979-07-15 07:29:32.130 ,5,0,0.,24.0,0.,24.0
1979-07-15 07:29:56.130 ,6,1,0.,24.0,0.,24.0
1979-07-15 07:30:20.130 ,6,0,0.,24.0,0.,24.0
1979-07-15 07:30:44.130 ,7,0,0.,24.0,0.,24.0
1979-07-15 07:31:08.130 ,7,0,0.,24.0,0.,24.0
1979-07-15 07:31:32.130 ,3,1,0.,24.0,0.,24.0
1979-07-15 07:31:56.130 ,0,1,0.,24.0,0.,24.0
1979-07-15 07:32:20.130 ,4,1,0.,24.0,0.,24.0
1979-07-15 07:32:44.130 ,7,1,0.,24.0,0.,24.0
1979-07-15 07:33:08.130 ,3,1,0.,24.0,0.,24.0
1979-07-15 07:33:32.130 ,0,1,0.,24.0,0.,24.0
1979-07-15 07:33:56.130 ,4,1,0.,24.0,0.,24.0
1979-07-15 07:34:20.130 ,7,1,0.,24.0,0.,24.0
1979-07-15 07:34:44.130 ,3,1,0.,24.0,0.,24.0
1979-07-15 07:35:08.130 ,0,1,0.,24.0,0.,24.0
1979-07-15 07:35:32.130 ,4,1,0.,24.0,0.,24.0
1979-07-15 07:35:56.130 ,7,1,0.,24.0,0.,24.0
1979-07-15 07:36:20.130 ,3,1,0.,24.0,0.,24.0
1979-07-15 07:36:44.130 ,0,1,0.,24.0,0.,24.0
1979-07-15 07:37:08.130 ,4,1,0.,24.0,0.,24.0
1979-07-15 07:37:32.130 ,7,1,0.,24.0,0.,24.0
1979-07-15 07:37:56.130 ,3,1,0.,24.0,0.,24.0
1979-07-15 07:38:20.130 ,0,1,0.,24.0,0.,24.0
1979-07-15 07:38:44.130 ,4,1,0.,24.0,0.,24.0
1979-07-15 07:39:08.130 ,7,1,0.,24.0,0.,24.0
1979-07-15 07:39:32.130 ,3,1,0.,24.0,0.,24.0
1979-07-15 07:39:56.130 ,0,1,0.,24.0,0.,24.0
1979-07-15 07:40:20.130 ,4,1,0.,24.0,0.,24.0
1979-07-15 07:40:44.130 ,7,1,0.,24.0,0.,24.0
1979-07-15 07:41:08.130 ,3,1,0.,24.0,0.,24.0
1979-07-15 07:41:32.130 ,0,1,0.,24.0,0.,24.0
1979-07-15 07:41:56.130 ,0,0,0.,24.0,0.,24.0
1979-07-15 07:42:20.130 ,0,0,0.,24.0,0.,24.0
1979-07-15 07:42:44.130 ,5,1,0.,24.0,0.,24.0
1979-07-15 07:43:08.130 ,5,0,0.,24.0,0.,24.0
1979-07-15 07:43:32.130 ,4,1,0.,24.0,0.,24.0
1979-07-15 07:43:56.130 ,4,0,0.,24.0,0.,24.0
1979-07-15 07:44:20.130 ,3,1,0.,24.0,0.,24.0
1979-07-15 07:44:44.130 ,3,0,0.,24.0,0.,24.0
1979-07-15 07:45:08.130 ,2,1,0.,24.0,0.,24.0
1979-07-15 07:45:32.130 ,2,0,0.,24.0,0.,24.0
1979-07-15 07:45:56.130 ,1,1,0.,24.0,0.,24.0
1979-07-15 07:46:20.130 ,1,0,0.,24.0,0.,24.0
1979-07-15 07:46:44.130 ,0,1,0.,24.0,0.,24.0
1979-07-15 07:47:08.130 ,0,0,0.,24.0,0.,24.0
1979-07-15 07:47:32.130 ,0,1,0.,24.0,0.,24.0
1979-07-15 07:47:56.130 ,0,0,0.,24.0,0.,24.0
1979-07-15 07:48:20.130 ,1,1,0.,24.0,0.,24.0
1979-07-15 07:48:44.130 ,1,0,0.,24.0,0.,24.0
1979-07-15 07:49:08.130 ,2,1,0.,24.0,0.,24.0
1979-07-15 07:49:32.130 ,2,0,0.,24.0,0.,24.0
1979-07-15 07:49:56.130 ,3,1,0.,24.0,0.,24.0
1979-07-15 07:50:20.130 ,3,0,0.,24.0,0.,24.0
1979-07-15 07:50:44.130 ,4,1,0.,24.0,0.,24.0
1979-07-15 07:51:08.130 ,4,0,0.,24.0,0.,24.0
1979-07-15 07:51:32.130 ,5,1,0.,24.0,0.,24.0
1979-07-15 07:51:56.130 ,5,0,0.,24.0,0.,24.0
1979-07-15 07:52:20.130 ,6,1,0.,24.0,0.,24.0
1979-07-15 07:52:44.130 ,6,0,0.,24.0,0.,24.0
1979-07-15 07:53:08.130 ,7,1,0.,24.0,0.,24.0
1979-07-15 07:53:32.130 ,7,0,0.,24.0,0.,24.0
1979-07-15 07:53:56.130 ,7,1,0.,24.0,0.,24.0
1979-07-15 07:54:20.130 ,7,0,0.,24.0,0.,24.0
1979-07-15 07:54:44.130 ,6,1,0.,24.0,0.,24.0
1979-07-15 07:55:08.130 ,6,0,0.,24.0,0.,24.0
1979-07-15 07:55:32.130 ,5,1,0.,24.0,0.,24.0
1979-07-15 07:55:56.130 ,5,0,0.,24.0,0.,24.0
1979-07-15 07:56:20.130 ,4,1,0.,24.0,0.,24.0
1979-07-15 07:56:44.130 ,4,0,0.,24.0,0.,24.0
1979-07-15 07:57:08.130 ,3,1,0.,24.0,0.,24.0
1979-07-15 07:57:32.130 ,3,0,0.,24.0,0.,24.0
1979-07-15 07:57:56.130 ,2,1,0.,24.0,0.,24.0
1979-07-15 07:58:20.130 ,2,0,0.,24.0,0.,24.0
1979-07-15 07:58:44.130 ,1,1,0.,24.0,0.,24.0
1979-07-15 07:59:08.130 ,1,0,0.,24.0,0.,24.0
1979-07-15 07:59:32.130 ,0,1,0.,24.0,0.,24.0
1979-07-15 07:59:56.130 ,0,0,0.,24.0,0.,24.0
1979-07-15 08:00:20.130 ,0,1,0.,24.0,0.,24.0
1979-07-15 08:00:44.130 ,0,0,0.,24.0,0.,24.0
1979-07-15 08:01:08.130 ,1,1,0.,24.0,0.,24.0
1979-07-15 08:01:32.130 ,1,0,0.,24.0,0.,24.0
1979-07-15 08:01:56.130 ,2,1,0.,24.0,0.,24.0
1979-07-15 08:02:20.130 ,2,0,0.,24.0,0.,24.0
1979-07-15 08:02:44.130 ,3,1,0.,24.0,0.,24.0
1979-07-15 08:03:08.130 ,3,0,0.,24.0,0.,24.0
1979-07-15 08:03:32.130 ,4,1,0.,24.0,0.,24.0
1979-07-15 08:03:56.130 ,4,0,0.,24.0,0.,24.0
1979-07-15 08:04:20.130 ,5,1,1.,24.0,0.,24.0
1979-07-15 08:04:44.130 ,5,0,0.,24.0,0.,24.0
1979-07-15 08:05:08.130 ,6,1,0.,24.0,0.,24.0
1979-07-15 08:05:32.130 ,6,0,0.,24.0,0.,24.0
1979-07-15 08:05:56.130 ,7,1,0.,24.0,0.,24.0
1979-07-15 08:06:20.130 ,7,0,0.,24.0,0.,24.0
1979-07-15 08:06:44.130 ,7,1,0.,24.0,0.,24.0
1979-07-15 08:07:08.130 ,7,0,0.,24.0,0.,24.0
1979-07-15 08:07:32.130 ,6,1,0.,24.0,0.,24.0
1979-07-15 08:07:56.130 ,6,0,0.,24.0,0.,24.0
1979-07-15 08:08:20.130 ,5,1,0.,24.0,0.,24.0
1979-07-15 08:08:44.130 ,5,0,0.,24.0,0.,24.0
1979-07-15 08:09:08.130 ,4,1,0.,24.0,0.,24.0
1979-07-15 08:09:32.130 ,4,0,0.,24.0,0.,24.0
1979-07-15 08:09:56.130 ,3,1,0.,24.0,0.,24.0
1979-07-15 08:10:20.130 ,3,0,0.,24.0,0.,24.0
1979-07-15 08:10:44.130 ,2,1,0.,24.0,0.,24.0
1979-07-15 08:11:08.130 ,2,0,0.,24.0,0.,24.0
1979-07-15 08:11:32.130 ,1,1,0.,24.0,0.,24.0
1979-07-15 08:11:56.130 ,1,0,0.,24.0,0.,24.0
1979-07-15 08:12:20.130 ,0,1,0.,24.0,0.,24.0
1979-07-15 08:12:44.130 ,0,0,0.,24.0,0.,24.0
1979-07-15 08:13:08.130 ,0,1,0.,24.0,0.,24.0
1979-07-15 08:13:32.130 ,0,0,0.,24.0,0.,24.0
1979-07-15 08:13:56.130 ,1,1,0.,24.0,0.,24.0
1979-07-15 08:14:20.130 ,1,0,0.,24.0,0.,24.0
1979-07-15 08:14:44.130 ,2,1,0.,24.0,0.,24.0
1979-07-15 08:15:08.130 ,2,0,0.,24.0,0.,24.0
1979-07-15 08:15:32.130 ,3,1,0.,24.0,0.,24.0
1979-07-15 08:15:56.130 ,3,0,0.,24.0,0.,24.0
1979-07-15 08:16:20.130 ,4,1,0.,24.0,0.,24.0
1979-07-15 08:16:44.130 ,4,0,0.,24.0,0.,24.0
1979-07-15 08:17:08.130 ,5,1,0.,24.0,0.,24.0
1979-07-15 08:17:32.130 ,5,0,0.,24.0,0.,24.0
1979-07-15 08:17:56.130 ,6,1,0.,24.0,0.,24.0
1979-07-15 08:18:20.130 ,6,0,0.,24.0,0.,24.0
1979-07-15 08:18:44.130 ,7,0,0.,24.0,0.,24.0
1979-07-15 08:19:08.130 ,7,0,0.,24.0,0.,24.0
1979-07-15 08:19:32.130 ,3,1,0.,24.0,0.,24.0
1979-07-15 08:19:56.130 ,0,1,0.,24.0,0.,24.0
1979-07-15 08:20:20.130 ,4,1,0.,24.0,0.,24.0
1979-07-15 08:20:44.130 ,7,1,0.,24.0,0.,24.0
1979-07-15 08:21:08.130 ,3,1,0.,24.0,0.,24.0
1979-07-15 08:21:32.130 ,0,1,0.,24.0,0.,24.0
1979-07-15 08:21:56.130 ,4,1,0.,24.0,0.,24.0
1979-07-15 08:22:20.130 ,7,1,0.,24.0,0.,24.0
1979-07-15 08:22:44.130 ,3,1,0.,24.0,0.,24.0
1979-07-15 08:23:08.130 ,0,1,0.,24.0,0.,24.0
1979-07-15 08:23:32.130 ,4,1,0.,24.0,0.,24.0
1979-07-15 08:23:56.130 ,7,1,0.,24.0,0.,24.0
1979-07-15 08:24:20.130 ,3,1,0.,24.0,0.,24.0
1979-07-15 08:24:44.130 ,0,1,0.,24.0,0.,24.0
1979-07-15 08:25:08.130 ,4,1,0.,24.0,0.,24.0
1979-07-15 08:25:32.130 ,7,1,0.,24.0,0.,24.0
1979-07-15 08:25:56.130 ,3,1,0.,24.0,0.,24.0
1979-07-15 08:26:20.130 ,0,1,0.,24.0,0.,24.0
1979-07-15 08:26:44.130 ,4,1,0.,24.0,0.,24.0
1979-07-15 08:27:08.130 ,7,1,0.,24.0,0.,24.0
1979-07-15 08:27:32.130 ,3,1,0.,24.0,0.,24.0
1979-07-15 08:27:56.130 ,0,1,0.,24.0,0.,24.0
1979-07-15 08:28:20.130 ,4,1,0.,24.0,0.,24.0
1979-07-15 08:28:44.130 ,7,1,0.,24.0,0.,24.0
1979-07-15 08:29:08.130 ,3,1,0.,24.0,0.,24.0
1979-07-15 08:29:32.130 ,0,1,0.,24.0,0.,24.0
1979-07-15 08:29:56.130 ,0,0,0.,24.0,0.,24.0
1979-07-15 08:30:20.130 ,0,0,0.,24.0,0.,24.0
1979-07-15 08:30:44.130 ,5,1,0.,24.0,0.,24.0
1979-07-15 08:31:08.130 ,5,0,0.,24.0,0.,24.0
1979-07-15 08:31:32.130 ,4,1,0.,24.0,0.,24.0
1979-07-15 08:31:56.130 ,4,0,0.,24.0,0.,24.0
1979-07-15 08:32:20.130 ,3,1,0.,24.0,0.,24.0
1979-07-15 08:32:44.130 ,3,0,0.,24.0,0.,24.0
1979-07-15 08:33:08.130 ,2,1,0.,24.0,0.,24.0
1979-07-15 08:33:32.130 ,2,0,0.,24.0,0.,24.0
1979-07-15 08:33:56.130 ,1,1,0.,24.0,0.,24.0
1979-07-15 08:34:20.130 ,1,0,0.,24.0,0.,24.0
1979-07-15 08:34:44.130 ,0,1,0.,24.0,0.,24.0
1979-07-15 08:35:08.130 ,0,0,0.,24.0,0.,24.0
1979-07-15 08:35:32.130 ,0,1,0.,24.0,0.,24.0
1979-07-15 08:35:56.130 ,0,0,0.,24.0,0.,24.0
1979-07-15 08:36:20.130 ,1,1,0.,24.0,0.,24.0
1979-07-15 08:36:44.130 ,1,0,0.,24.0,0.,24.0
1979-07-15 08:37:08.130 ,2,1,0.,24.0,0.,24.0
1979-07-15 08:37:32.130 ,2,0,0.,24.0,0.,24.0
1979-07-15 08:37:56.130 ,3,1,0.,24.0,0.,24.0
1979-07-15 08:38:20.130 ,3,0,0.,24.0,0.,24.0
1979-07-15 08:38:44.130 ,4,1,0.,24.0,0.,24.0
1979-07-15 08:39:08.130 ,4,0,0.,24.0,0.,24.0
1979-07-15 08:39:32.130 ,5,1,0.,24.0,0.,24.0
1979-07-15 08:39:56.130 ,5,0,0.,24.0,0.,24.0
1979-07-15 08:40:20.130 ,6,1,0.,24.0,0.,24.0
1979-07-15 08:40:44.130 ,6,0,0.,24.0,0.,24.0
1979-07-15 08:41:08.130 ,7,1,0.,24.0,0.,24.0
1979-07-15 08:41:32.130 ,7,0,0.,24.0,0.,24.0
1979-07-15 08:41:56.130 ,7,1,0.,24.0,0.,24.0
1979-07-15 08:42:20.130 ,7,0,0.,24.0,0.,24.0
1979-07-15 08:42:44.130 ,6,1,0.,24.0,0.,24.0
1979-07-15 08:43:08.130 ,6,0,0.,24.0,0.,24.0
1979-07-15 08:43:32.130 ,5,1,0.,24.0,0.,24.0
1979-07-15 08:43:56.130 ,5,0,0.,24.0,0.,24.0
1979-07-15 08:44:20.130 ,4,1,0.,24.0,0.,24.0
1979-07-15 08:44:44.130 ,4,0,0.,24.0,0.,24.0
1979-07-15 08:45:08.130 ,3,1,0.,24.0,0.,24.0
1979-07-15 08:45:32.130 ,3,0,0.,24.0,0.,24.0
1979-07-15 08:45:56.130 ,2,1,0.,24.0,0.,24.0
1979-07-15 08:46:20.130 ,2,0,0.,24.0,0.,24.0
1979-07-15 08:46:44.130 ,1,1,0.,24.0,0.,24.0
1979-07-15 08:47:08.130 ,1,0,0.,24.0,0.,24.0
1979-07-15 08:47:32.130 ,0,1,0.,24.0,0.,24.0
1979-07-15 08:47:56.130 ,0,0,0.,24.0,0.,24.0
1979-07-15 08:48:20.130 ,0,1,0.,24.0,0.,24.0
1979-07-15 08:48:44.130 ,0,0,0.,24.0,0.,24.0
1979-07-15 08:49:08.130 ,1,1,0.,24.0,0.,24.0
1979-07-15 08:49:32.130 ,1,0,0.,24.0,0.,24.0
1979-07-15 08:49:56.130 ,2,1,0.,24.0,0.,24.0
1979-07-15 08:50:20.130 ,2,0,0.,24.0,0.,24.0
1979-07-15 08:50:44.130 ,3,1,0.,24.0,0.,24.0
1979-07-15 08:51:08.130 ,3,0,0.,24.0,0.,24.0
1979-07-15 08:51:32.130 ,4,1,0.,24.0,0.,24.0
1979-07-15 08:51:56.130 ,4,0,0.,24.0,0.,24.0
1979-07-15 08:52:20.130 ,5,1,0.,24.0,0.,24.0
1979-07-15 08:52:44.130 ,5,0,0.,24.0,0.,24.0
1979-07-15 08:53:08.130 ,6,1,0.,24.0,0.,24.0
1979-07-15 08:53:32.130 ,6,0,0.,24.0,0.,24.0
1979-07-15 08:53:56.130 ,7,1,0.,24.0,0.,24.0
1979-07-15 08:54:20.130 ,7,0,0.,24.0,0.,24.0
1979-07-15 08:54:44.130 ,7,1,0.,24.0,0.,24.0
1979-07-15 08:55:08.130 ,7,0,0.,24.0,0.,24.0
1979-07-15 08:55:32.130 ,6,1,0.,24.0,0.,24.0
1979-07-15 08:55:56.130 ,6,0,0.,24.0,0.,24.0
1979-07-15 08:56:20.130 ,5,1,0.,24.0,0.,24.0
1979-07-15 08:56:44.130 ,5,0,0.,24.0,0.,24.0
1979-07-15 08:57:08.130 ,4,1,0.,24.0,0.,24.0
1979-07-15 08:57:32.130 ,4,0,0.,24.0,0.,24.0
1979-07-15 08:57:56.130 ,3,1,0.,24.0,0.,24.0
1979-07-15 08:58:20.130 ,3,0,0.,24.0,0.,24.0
1979-07-15 08:58:44.130 ,2,1,0.,24.0,0.,24.0
1979-07-15 08:59:08.130 ,2,0,0.,24.0,0.,24.0
1979-07-15 08:59:32.130 ,1,1,0.,24.0,0.,24.0
1979-07-15 08:59:56.130 ,1,0,0.,24.0,0.,24.0
1979-07-15 09:00:20.130 ,0,1,0.,24.0,0.,24.0
